STARLINK-36392, 68115

Orbit data source: Space-Track

STARLINK-36392, 68115 is a payload satellite owned by SpaceX/Seattle (US) in SSO that was launched on Sun, 08 Mar 2026 UTC via an FALCON 9 launch vehicle from the Air Force Western Test Range (AFWTR). Payload-class satellites include a variety of spacecraft equipped with specific instruments for various scientific and technological missions. These include communications satellites like Starlink; space stations such as the ISS; scientific satellites like the Hubble; Earth observation satellites from companies like Planet Labs, Umbra, and HawkEye 360; GPS; miniature CubeSats for education and research; and military/defense satellites.

Loading next visibility...
Identifier
68115, 2026-044Q
Orbit
SSO
Country
Flag of USUS
Related business
Manufacturer
SpaceX/Seattle
Mission
Operational Commercial Communications
Bus & Motor
STARLINK V2MO, Unknown motor
Mass
575 kg wet, ~530 kg dry
Launch date (UTC)
2026-03-08 (6 months ago)
Launch vehicle
FALCON 9
Launch site
Air Force Western Test Range (AFWTR)
Object type
Payload
Rocket body
Debris
Shape & HBR
Box + 1 Pan, 17.7 m
Radar Cross Section
41.120 m², Large (>1 m²)

Expand to show TLE details & history
Last TLE update: 14 hours ago

TLE from 14 hours ago
0 STARLINK-36392
1 68115U 26044Q   26246.82904372  .00016126  00000-0  50064-3 0  9996
2 68115  97.2858 206.0257 0002266  88.7059 271.4444 15.33451815 28885
Epoch: 2026-09-03T19:53Z
TLE epoch observation values (Epoch: 2026-09-03T19:53:49.377Z)
Latitude
0.00005°
Longitude
-75.39165°
Altitude
468.596 km
Speed
7.632 km/s
True Right ascension
13h 44m 06s
True Declination
0° 00' 00"
Sunlit
Object was in daylight at epoch
Visualization orbit readout
Latitude
Unknown
Longitude
Unknown
Altitude
Unknown
Speed
Unknown
Apparent Right ascension
Unknown
Apparent Declination
Unknown
Sunlit
N/A
Visualization observer readout
Local Sidereal Time
01:42:43
Azimuth
Unknown
Elevation
Unknown
Doppler factor
Unknown
Orbital elements
Apogee altitude
464.016 km
Perigee altitude
460.916 km
Semi-major axis
6,840.603 km
Eccentricity
0.00023
Inclination
97.2858°
RAAN
206.0257°
Arg. of periapsis
88.7059°
True anomaly
271.41844°
Mean anomaly
271.4444°
Eccentric anomaly
271.43142°
Mean motion
3.8362 °/min
Orbital period
93.84 mins
BSTAR
0.00050064
Loading maneuver chart data...
Computing Atmospheric mass density...
Loading historical data...
Loading historical data...
Loading historical data...
Loading historical data...
Loading historical data...
Loading historical data...
Loading historical data...

Documentation

Showing up to 5 results
|